Tracking 26218 objects as of 26-Sep-2022
HD Live streaming from Space Station
objects crossing your sky now

FLOCK 4X 19

Track FLOCK 4X 19 now!
10-day predictions


NORAD ID: 51046
Int'l Code: 2022-002BQ
Perigee: 516.1 km
Apogee: 530.5 km
Inclination: 97.5 °
Period: 94.9 minutes
Semi major axis: 6894 km
RCS: Unknown
Launch date: January 13, 2022
Source: United States (US)
Launch site: AIR FORCE EASTERN TEST RANGE (AFETR)
aabbcc
Your satellite tracking list
Your tracking list is empty




NASA's NSSDC Master Catalog

Two Line Element Set (TLE):
1 51046U 22002BQ  22268.73034467  .00013278  00000-0  68169-3 0  9990
2 51046  97.4796 334.4867 0010488  87.1398 273.1036 15.16588586 38615
Source of the keplerian elements: AFSPC